When you browse on this site, cookies collect data to enhance your experience and personalize the content and advertising you see.
Visit our Privacy Policy to learn more. By continuing to use the site, you agree to this use of cookies and data.
  • In Lithuania
  • List of Countries
  • For 7 days
  • Water Temperature
  • Satellite Maps
  • Weather Map
  • Weather Widgets
  • user-avatar
    Login

    Hourly Weather Salta

    Today, 17 June, Monday

    Time Temperature Precipitation Wind Pressure Humidity
    00:00 +6°C° 0 mm 0 mps 652 mmHg 77%
    01:00 +6°C° 0 mm 0 mps 652 mmHg 79%
    02:00 +6°C° 0 mm 0 mps 651 mmHg 79%
    03:00 +6°C° 0 mm 0 mps 651 mmHg 80%
    04:00 +6°C° 0 mm 0 mps 650 mmHg 81%
    05:00 +6°C° 0 mm 0 mps 650 mmHg 81%
    06:00 +6°C° 0 mm 0 mps 651 mmHg 80%
    07:00 +7°C° 0 mm 0 mps 651 mmHg 79%
    08:00 +7°C° 0 mm 0 mps 652 mmHg 77%
    09:00 +10°C° 0 mm 1 mps 652 mmHg 69%
    10:00 +13°C° 0 mm 1 mps 652 mmHg 60%
    11:00 +15°C° 0 mm 2 mps 653 mmHg 52%
    12:00 +16°C° 0 mm 2 mps 652 mmHg 49%
    13:00 +17°C° 0 mm 2 mps 651 mmHg 45%
    14:00 +18°C° 0 mm 2 mps 651 mmHg 42%
    15:00 +17°C° 0 mm 2 mps 650 mmHg 45%
    16:00 +17°C° 0 mm 2 mps 650 mmHg 48%
    17:00 +16°C° 0 mm 1 mps 649 mmHg 52%
    18:00 +14°C° 0 mm 1 mps 649 mmHg 55%
    19:00 +12°C° 0 mm 1 mps 649 mmHg 59%
    20:00 +10°C° 0 mm 1 mps 649 mmHg 62%
    21:00 +10°C° 0 mm 1 mps 649 mmHg 61%
    22:00 +9°C° 0 mm 1 mps 649 mmHg 60%
    23:00 +9°C° 0 mm 1 mps 649 mmHg 59%

    Tomorrow, 18 June, Tuesday

    Time Temperature Precipitation Wind Pressure Humidity
    00:00 +9°C° 0 mm 1 mps 649 mmHg 58%
    01:00 +9°C° 0 mm 1 mps 649 mmHg 56%
    02:00 +9°C° 0 mm 1 mps 650 mmHg 55%
    03:00 +9°C° 0 mm 1 mps 650 mmHg 54%
    04:00 +9°C° 0 mm 1 mps 650 mmHg 53%
    05:00 +8°C° 0 mm 2 mps 650 mmHg 52%
    06:00 +9°C° 0 mm 2 mps 651 mmHg 52%
    07:00 +10°C° 0 mm 1 mps 651 mmHg 53%
    08:00 +10°C° 0 mm 1 mps 652 mmHg 53%
    09:00 +13°C° 0 mm 2 mps 652 mmHg 48%
    10:00 +15°C° 0 mm 2 mps 653 mmHg 43%
    11:00 +18°C° 0 mm 2 mps 654 mmHg 37%
    12:00 +18°C° 0 mm 2 mps 653 mmHg 37%
    13:00 +19°C° 0 mm 2 mps 653 mmHg 36%
    14:00 +20°C° 0 mm 2 mps 652 mmHg 36%
    15:00 +18°C° 0 mm 2 mps 652 mmHg 41%
    16:00 +17°C° 0 mm 2 mps 652 mmHg 45%
    17:00 +15°C° 0 mm 2 mps 651 mmHg 50%
    18:00 +13°C° 0 mm 2 mps 651 mmHg 55%
    19:00 +11°C° 0 mm 1 mps 652 mmHg 59%
    20:00 +9°C° 0 mm 1 mps 652 mmHg 64%
    21:00 +9°C° 0 mm 1 mps 652 mmHg 64%
    22:00 +8°C° 0 mm 1 mps 652 mmHg 64%
    23:00 +8°C° 0 mm 1 mps 653 mmHg 65%

    Day after tomorrow, 19 June, Wednesday

    Time Temperature Precipitation Wind Pressure Humidity
    00:00 +8°C° 0 mm 1 mps 652 mmHg 67%
    01:00 +7°C° 0 mm 1 mps 652 mmHg 68%
    02:00 +7°C° 0 mm 1 mps 652 mmHg 70%
    03:00 +7°C° 0 mm 1 mps 652 mmHg 67%
    04:00 +6°C° 0 mm 2 mps 652 mmHg 64%
    05:00 +6°C° 0 mm 2 mps 652 mmHg 61%
    06:00 +7°C° 0 mm 2 mps 653 mmHg 57%
    07:00 +9°C° 0 mm 1 mps 653 mmHg 53%
    08:00 +10°C° 0 mm 1 mps 654 mmHg 49%
    09:00 +13°C° 0 mm 1 mps 655 mmHg 42%
    10:00 +16°C° 0 mm 1 mps 656 mmHg 35%
    11:00 +20°C° 0 mm 1 mps 657 mmHg 27%
    12:00 +21°C° 0 mm 1 mps 657 mmHg 25%
    13:00 +22°C° 0 mm 1 mps 656 mmHg 23%
    14:00 +23°C° 0 mm 1 mps 656 mmHg 21%
    15:00 +21°C° 0 mm 1 mps 655 mmHg 25%
    16:00 +20°C° 0 mm 1 mps 655 mmHg 29%
    17:00 +18°C° 0 mm 1 mps 654 mmHg 33%
    18:00 +15°C° 0 mm 1 mps 654 mmHg 35%
    19:00 +12°C° 0 mm 0 mps 654 mmHg 38%
    20:00 +10°C° 0 mm 0 mps 653 mmHg 40%
    21:00 +10°C° 0 mm 0 mps 653 mmHg 41%
    22:00 +9°C° 0 mm 0 mps 653 mmHg 42%
    23:00 +9°C° 0 mm 0 mps 653 mmHg 43%

    20 June, Thursday

    Time Temperature Precipitation Wind Pressure Humidity
    00:00 +8°C° 0 mm 0 mps 653 mmHg 44%
    01:00 +8°C° 0 mm 0 mps 653 mmHg 44%
    02:00 +8°C° 0 mm 0 mps 653 mmHg 45%
    03:00 +8°C° 0 mm 0 mps 652 mmHg 45%
    04:00 +7°C° 0 mm 0 mps 652 mmHg 44%
    05:00 +7°C° 0 mm 0 mps 652 mmHg 44%
    06:00 +8°C° 0 mm 0 mps 653 mmHg 43%
    07:00 +9°C° 0 mm 0 mps 653 mmHg 42%
    08:00 +10°C° 0 mm 0 mps 654 mmHg 41%
    09:00 +13°C° 0 mm 1 mps 655 mmHg 36%
    10:00 +16°C° 0 mm 1 mps 656 mmHg 32%
    11:00 +20°C° 0 mm 1 mps 656 mmHg 28%
    12:00 +20°C° 0 mm 2 mps 656 mmHg 28%
    13:00 +20°C° 0 mm 2 mps 655 mmHg 29%
    14:00 +21°C° 0 mm 2 mps 654 mmHg 30%
    15:00 +20°C° 0 mm 2 mps 654 mmHg 34%
    16:00 +20°C° 0 mm 1 mps 653 mmHg 39%
    17:00 +19°C° 0 mm 1 mps 653 mmHg 44%
    18:00 +16°C° 0 mm 1 mps 652 mmHg 49%
    19:00 +14°C° 0 mm 1 mps 652 mmHg 53%
    20:00 +12°C° 0 mm 1 mps 652 mmHg 58%
    21:00 +11°C° 0 mm 1 mps 652 mmHg 59%
    22:00 +11°C° 0 mm 1 mps 651 mmHg 61%
    23:00 +10°C° 0 mm 1 mps 651 mmHg 62%

    21 June, Friday

    Time Temperature Precipitation Wind Pressure Humidity
    00:00 +10°C° 0 mm 1 mps 651 mmHg 62%
    01:00 +10°C° 0 mm 1 mps 651 mmHg 62%
    02:00 +10°C° 0 mm 1 mps 650 mmHg 62%
    03:00 +10°C° 0 mm 1 mps 650 mmHg 61%
    04:00 +10°C° 0 mm 1 mps 650 mmHg 60%
    05:00 +10°C° 0 mm 1 mps 650 mmHg 59%
    06:00 +11°C° 0 mm 1 mps 650 mmHg 57%
    07:00 +11°C° 0 mm 1 mps 651 mmHg 55%
    08:00 +12°C° 0 mm 1 mps 651 mmHg 54%
    09:00 +15°C° 0 mm 1 mps 652 mmHg 47%
    10:00 +20°C° 0 mm 1 mps 653 mmHg 41%
    11:00 +23°C° 0 mm 1 mps 654 mmHg 35%
    12:00 +24°C° 0 mm 1 mps 654 mmHg 34%
    13:00 +25°C° 0 mm 1 mps 653 mmHg 32%
    14:00 +26°C° 0 mm 2 mps 653 mmHg 31%
    15:00 +25°C° 0 mm 1 mps 653 mmHg 37%
    16:00 +23°C° 0 mm 1 mps 652 mmHg 43%
    17:00 +22°C° 0 mm 1 mps 652 mmHg 50%
    18:00 +20°C° 0 mm 1 mps 652 mmHg 56%
    19:00 +16°C° 0 mm 1 mps 652 mmHg 63%
    20:00 +14°C° 0 mm 1 mps 652 mmHg 70%
    21:00 +14°C° 0 mm 1 mps 652 mmHg 71%
    22:00 +14°C° 0 mm 1 mps 652 mmHg 71%
    23:00 +14°C° 0 mm 1 mps 652 mmHg 72%

    22 June, Saturday

    Time Temperature Precipitation Wind Pressure Humidity
    00:00 +14°C° 0 mm 1 mps 652 mmHg 72%
    01:00 +13°C° 0 mm 1 mps 652 mmHg 71%
    02:00 +13°C° 0 mm 2 mps 652 mmHg 71%
    03:00 +13°C° 0 mm 1 mps 652 mmHg 70%
    04:00 +13°C° 0 mm 1 mps 651 mmHg 69%
    05:00 +13°C° 0 mm 1 mps 651 mmHg 68%
    06:00 +13°C° 0 mm 1 mps 652 mmHg 65%
    07:00 +14°C° 0 mm 1 mps 653 mmHg 63%
    08:00 +15°C° 0 mm 1 mps 653 mmHg 60%
    09:00 +19°C° 0 mm 1 mps 654 mmHg 55%
    10:00 +22°C° 0 mm 1 mps 655 mmHg 49%
    11:00 +25°C° 0 mm 1 mps 656 mmHg 44%
    12:00 +26°C° 0 mm 1 mps 655 mmHg 43%
    13:00 +26°C° 0 mm 1 mps 655 mmHg 42%
    14:00 +27°C° 0 mm 2 mps 654 mmHg 40%
    15:00 +26°C° 0 mm 2 mps 654 mmHg 46%
    16:00 +25°C° 0 mm 1 mps 654 mmHg 51%
    17:00 +23°C° 0 mm 1 mps 654 mmHg 56%
    18:00 +21°C° 0 mm 1 mps 653 mmHg 65%
    19:00 +19°C° 0 mm 1 mps 653 mmHg 74%
    20:00 +16°C° 0 mm 1 mps 653 mmHg 82%
    21:00 +16°C° 0 mm 1 mps 653 mmHg 83%
    22:00 +14°C° 0 mm 0 mps 653 mmHg 83%
    23:00 +14°C° 0 mm 0 mps 653 mmHg 83%
    Show more